"Pseudo-MPEC" for C2YNJV2

Created 2020 Aug 15 11:07:08 UT using Find_Orb

Click here for an explanation of pseudo-MPECs

 
 Astrometry: 
     C2YNJV2  C2020 07 31.17986 16 02 25.67 +21 57 53.4    ~7V4q 21.0 GVNEOCPG96
     C2YNJV2  C2020 07 31.18509 16 02 21.99 +21 58 20.6    ~7V4q 21.4 GVNEOCPG96
     C2YNJV2  C2020 07 31.19032 16 02 18.27 +21 58 47.8    ~7V4q 21.4 GVNEOCPG96
     C2YNJV2 1C2020 08 02dY\KOBBL(bifk6NAstrometry_g[E`L-.k-7/3C)QW?T(nv%t%Ac658
     C2YNJV2 1C2020 08 02kfy@KfUJ'(X5M?'\-$?^[98a5w\ny_*yYU?iZKljx1K4O.We!o)b658
     C2YNJV2 1C2020 08 02^ZxRxxl(QK7JnK%?=Iq)t,!InXhoNKWf+0?).1196#c+NB$lkvOe658
     C2YNJV2 1C2020 08 02\PiP/WE7)Vredacted;#4fvrclickNa]Ax`_]i'a5s7d8s:'I#9H658
     C2YNJV2 1C2020 08 02nvhereYLfordyH\(0@IbZ.yIj:^explanationcR!Kq]OtvQiLdo658

Station data:
(658) Dominion Astrophysical Observatory  (N48.519987 W123.417000)
   Canada/BritColumbia. 1.82-m Plaskett reflector.
(G96) Mt. Lemmon Survey  (N32.442754 W110.788720)  US/Arizona.  Observers T.
   A. Pruyne, B. M. Africano, E. J. Christensen, G. A. Farneth, D. C. Fuls,
   A. R. Gibbs, A. D. Grauer, H. Gröller, J. A. Johnson, R. A. Kowalski, S.
   M. Larson, G. J. Leonard, D. Rankin, R. L. Seaman, F. C. Shelly. 1.5-m
   reflector + 10K CCD.

Orbital elements:  C2YNJV2
   Perihelion 2020 Aug 25.645950 +/- 0.691 TT = 15:30:10 (JD 2459087.145950)
Epoch 2020 Aug  2.0 TT = JDT 2459063.5   Earth MOID: 0.0345   Ju: 0.5142
M 359.96507065 +/- 1.7              Sa: 0.5547   Ur: 0.4416   Ne: 0.1064
n   0.00147718 +/-                  Peri.  200.94043 +/- 0.28
a  76.3566635 +/-                   Node   140.21796 +/- 0.55
e   0.9877921 +/- 0.164             Incl.   11.40925 +/- 1.0
P 667.22                   H 24.3   G  0.15   U 10.4  
q 0.93214882 +/- 0.0118    Q 151.781178 +/- 1657              AutoNEOCP
From 8 observations 2020 July 31-Aug. 2; mean residual 0".21
Residuals in arcseconds: 
200731 G96  .10-  .15+    200802 658  .29+  .31+    200802 658  .07+  .08-    
200731 G96  .18+  .00     200802 658  .54-  .05-    200802 658  .27+  .14-    
200731 G96  .08-  .15-    200802 658  .09-  .04-    

Ephemerides (geocentric):
Date (UTC) HH   RA              Dec         delta   r     elong  mag " sig PA
---- -- -- --  -------------   -----------  ------ ------ -----  --- ---- ---
2020 08 15 11  07 10 45.320   +09 39 42.41  .08071 .94942  36.9 25?? 4540  55
2020 08 15 12  07 10 19.710   +09 35 08.42  .08107 .94928  37.0 25?? 4527  55
2020 08 15 13  07 09 54.343   +09 30 36.71  .08142 .94914  37.2 25?? 4514  55
2020 08 15 14  07 09 29.219   +09 26 07.28  .08178 .94900  37.3 25?? 4502  55
2020 08 15 15  07 09 04.333   +09 21 40.09  .08213 .94886  37.5 25?? 4489  55
2020 08 15 16  07 08 39.683   +09 17 15.12  .08249 .94873  37.6 25?? 4477  55
2020 08 15 17  07 08 15.266   +09 12 52.35  .08284 .94859  37.8 25?? 4465  55
2020 08 15 18  07 07 51.079   +09 08 31.76  .08320 .94845  37.9 25?? 4453  55
2020 08 15 19  07 07 27.118   +09 04 13.32  .08355 .94832  38.1 25?? 4441  55
2020 08 15 20  07 07 03.382   +08 59 57.00  .08391 .94818  38.2 25?? 4429  55
2020 08 15 21  07 06 39.867   +08 55 42.80  .08427 .94805  38.4 25?? 4417  55
2020 08 15 22  07 06 16.570   +08 51 30.68  .08463 .94792  38.5 25?? 4405  55
2020 08 15 23  07 05 53.490   +08 47 20.63  .08498 .94778  38.7 25?? 4393  55
2020 08 16 00  07 05 30.623   +08 43 12.62  .08534 .94765  38.8 25?? 4381  55
2020 08 16 01  07 05 07.967   +08 39 06.63  .08570 .94752  38.9 25?? 4370  55
2020 08 16 02  07 04 45.519   +08 35 02.64  .08606 .94739  39.1 25?? 4358  55
2020 08 16 03  07 04 23.277   +08 31 00.63  .08642 .94726  39.2 25?? 4347  55
2020 08 16 04  07 04 01.237   +08 27 00.58  .08678 .94713  39.4 25?? 4335  55
2020 08 16 05  07 03 39.399   +08 23 02.47  .08714 .94700  39.5 25?? 4324  55
2020 08 16 06  07 03 17.759   +08 19 06.28  .08750 .94687  39.6 25?? 4313  55
2020 08 16 07  07 02 56.315   +08 15 11.99  .08786 .94674  39.8 25?? 4301  55
2020 08 16 08  07 02 35.064   +08 11 19.57  .08822 .94661  39.9 25?? 4290  55
2020 08 16 09  07 02 14.005   +08 07 29.02  .08859 .94649  40.0 25?? 4279  55
2020 08 16 10  07 01 53.134   +08 03 40.31  .08895 .94636  40.2 25?? 4268  55
2020 08 16 11  07 01 32.451   +07 59 53.42  .08931 .94623  40.3 25?? 4257  55
2020 08 16 12  07 01 11.952   +07 56 08.33  .08967 .94611  40.4 25?? 4247  55
2020 08 16 13  07 00 51.636   +07 52 25.03  .09004 .94598  40.6 25?? 4236  55
2020 08 16 14  07 00 31.500   +07 48 43.50  .09040 .94586  40.7 25?? 4225  55
2020 08 16 15  07 00 11.542   +07 45 03.71  .09076 .94573  40.8 25?? 4215  55
2020 08 16 16  06 59 51.760   +07 41 25.65  .09113 .94561  41.0 25?? 4204  55
2020 08 16 17  06 59 32.153   +07 37 49.31  .09149 .94549  41.1 25?? 4194  55
2020 08 16 18  06 59 12.717   +07 34 14.66  .09186 .94536  41.2 25?? 4183  55
2020 08 16 19  06 58 53.452   +07 30 41.69  .09222 .94524  41.3 25?? 4173  55
2020 08 16 20  06 58 34.354   +07 27 10.38  .09259 .94512  41.5 25?? 4163  55
2020 08 16 21  06 58 15.423   +07 23 40.71  .09295 .94500  41.6 25?? 4153  55
2020 08 16 22  06 57 56.657   +07 20 12.67  .09332 .94488  41.7 25?? 4143  55
2020 08 16 23  06 57 38.052   +07 16 46.24  .09368 .94476  41.8 25?? 4133  55
2020 08 17 00  06 57 19.609   +07 13 21.41  .09405 .94464  42.0 25?? 4123  55
2020 08 17 01  06 57 01.324   +07 09 58.16  .09442 .94452  42.1 25?? 4113  55
2020 08 17 02  06 56 43.196   +07 06 36.46  .09478 .94440  42.2 25?? 4103  55
2020 08 17 03  06 56 25.224   +07 03 16.32  .09515 .94429  42.3 25?? 4093  55
2020 08 17 04  06 56 07.405   +06 59 57.70  .09552 .94417  42.5 25?? 4084  55
2020 08 17 05  06 55 49.738   +06 56 40.60  .09589 .94405  42.6 25?? 4074  55
2020 08 17 06  06 55 32.221   +06 53 25.00  .09625 .94394  42.7 25?? 4065  55
2020 08 17 07  06 55 14.852   +06 50 10.89  .09662 .94382  42.8 25?? 4055  55
2020 08 17 08  06 54 57.630   +06 46 58.25  .09699 .94371  42.9 25?? 4046  55
2020 08 17 09  06 54 40.554   +06 43 47.06  .09736 .94359  43.0 25?? 4036  55
2020 08 17 10  06 54 23.621   +06 40 37.31  .09773 .94348  43.2 25?? 4027  55